Time,TemperatureF,DewpointF,PressureIn,WindDirection,WindDirectionDegrees,WindSpeedMPH,WindSpeedGustMPH,Humidity,HourlyPrecipIn,Conditions,Clouds,dailyrainin,SolarRadiationWatts/m^2,SoftwareType,DateUTC
2013-07-29 00:00:00,82.7,69.8,29.57,SE,128,8.0,14.0,65,0.00,,SKC,0.00,0.00,VWS V14.01,2013-07-29 05:00:00,
2013-07-29 00:01:00,82.7,69.8,29.57,SE,128,8.0,14.0,65,0.00,,SKC,0.00,0.00,VWS V14.00,2013-07-29 05:01:00,
2013-07-29 00:06:00,82.6,70.1,29.57,SE,128,5.0,14.0,66,0.00,,SKC,0.00,0.00,VWS V14.00,2013-07-29 05:06:00,
2013-07-29 00:10:00,82.5,70.4,29.57,SE,130,7.0,16.0,67,0.00,,SKC,0.00,0.00,VWS V14.01,2013-07-29 05:10:00,
2013-07-29 00:11:00,82.5,70.4,29.57,SE,130,7.0,16.0,67,0.00,,SKC,0.00,0.00,VWS V14.00,2013-07-29 05:11:00,
2013-07-29 00:16:00,82.3,70.3,29.58,SE,130,6.0,12.0,67,0.00,,SKC,0.00,0.00,VWS V14.00,2013-07-29 05:16:00,
2013-07-29 00:20:00,82.2,70.6,29.58,SE,130,5.0,12.0,68,0.00,,SKC,0.00,0.00,VWS V14.01,2013-07-29 05:20:00,
2013-07-29 00:21:00,82.2,70.6,29.58,SE,130,5.0,5.0,68,0.00,,SKC,0.00,0.00,VWS V14.00,2013-07-29 05:21:00,
2013-07-29 00:26:00,82.0,70.4,29.57,SE,129,8.0,13.0,68,0.00,,SKC,0.00,0.00,VWS V14.00,2013-07-29 05:26:00,
2013-07-29 00:30:00,81.9,70.7,29.58,SE,128,4.0,14.0,69,0.00,,SKC,0.00,0.00,VWS V14.01,2013-07-29 05:30:00,
2013-07-29 00:31:00,81.9,70.7,29.58,SE,128,4.0,14.0,69,0.00,,SKC,0.00,0.00,VWS V14.00,2013-07-29 05:31:00,
2013-07-29 00:36:00,81.8,71.1,29.58,SE,128,5.0,13.0,70,0.00,,SKC,0.00,0.00,VWS V14.00,2013-07-29 05:36:00,
2013-07-29 00:40:00,81.7,71.0,29.57,SE,128,5.0,13.0,70,0.00,,SKC,0.00,0.00,VWS V14.01,2013-07-29 05:40:00,
2013-07-29 00:41:00,81.7,71.0,29.57,SE,128,5.0,13.0,70,0.00,,SKC,0.00,0.00,VWS V14.00,2013-07-29 05:41:00,
2013-07-29 00:46:00,81.5,71.2,29.58,SE,128,7.0,9.0,71,0.00,,SKC,0.00,0.00,VWS V14.00,2013-07-29 05:46:00,
2013-07-29 00:50:00,81.4,71.1,29.58,SE,128,5.0,11.0,71,0.00,,SKC,0.00,0.00,VWS V14.01,2013-07-29 05:50:00,
2013-07-29 00:51:00,81.4,71.1,29.58,SE,128,4.0,4.0,71,0.00,,SKC,0.00,0.00,VWS V14.00,2013-07-29 05:51:00,
2013-07-29 00:56:00,81.3,71.4,29.58,ESE,121,8.0,13.0,72,0.00,,SKC,0.00,0.00,VWS V14.00,2013-07-29 05:56:00,
2013-07-29 01:00:00,81.1,71.2,29.59,ESE,121,6.0,13.0,72,0.00,,SKC,0.00,0.00,VWS V14.01,2013-07-29 06:00:00,
2013-07-29 01:01:00,81.1,71.2,29.59,ESE,121,5.0,5.0,72,0.00,,SKC,0.00,0.00,VWS V14.00,2013-07-29 06:01:00,
2013-07-29 01:07:00,81.0,71.5,29.58,ESE,121,5.0,12.0,73,0.00,,SKC,0.00,0.00,VWS V14.00,2013-07-29 06:07:00,
2013-07-29 01:10:00,80.9,71.8,29.58,ESE,121,6.0,12.0,74,0.00,,SKC,0.00,0.00,VWS V14.01,2013-07-29 06:10:00,
2013-07-29 01:12:00,80.9,71.8,29.58,ESE,121,6.0,12.0,74,0.00,,SKC,0.00,0.00,VWS V14.00,2013-07-29 06:12:00,
2013-07-29 01:17:00,80.8,71.7,29.58,ESE,121,5.0,9.0,74,0.00,,SKC,0.00,0.00,VWS V14.00,2013-07-29 06:17:00,
2013-07-29 01:20:00,80.7,71.7,29.58,ESE,121,4.0,9.0,74,0.00,,SKC,0.00,0.00,VWS V14.01,2013-07-29 06:20:00,
2013-07-29 01:22:00,80.7,71.7,29.58,ESE,121,5.0,5.0,74,0.00,,SKC,0.00,0.00,VWS V14.00,2013-07-29 06:22:00,
2013-07-29 01:27:00,80.5,71.8,29.58,ESE,121,5.0,9.0,75,0.00,,SKC,0.00,0.00,VWS V14.00,2013-07-29 06:27:00,
2013-07-29 01:30:00,80.4,71.8,29.58,ESE,121,8.0,9.0,75,0.00,,SKC,0.00,0.00,VWS V14.01,2013-07-29 06:30:00,
2013-07-29 01:32:00,80.3,71.7,29.58,ESE,121,8.0,11.0,75,0.00,,SKC,0.00,0.00,VWS V14.00,2013-07-29 06:32:00,
2013-07-29 01:37:00,80.3,72.1,29.58,ESE,121,8.0,11.0,76,0.00,,SKC,0.00,0.00,VWS V14.00,2013-07-29 06:37:00,
2013-07-29 01:40:00,80.2,71.9,29.59,ESE,121,4.0,11.0,76,0.00,,SKC,0.00,0.00,VWS V14.01,2013-07-29 06:40:00,
2013-07-29 01:42:00,80.2,71.9,29.59,ESE,121,5.0,6.0,76,0.00,,SKC,0.00,0.00,VWS V14.00,2013-07-29 06:42:00,
2013-07-29 01:47:00,80.0,71.8,29.58,ESE,121,4.0,7.0,76,0.00,,SKC,0.00,0.00,VWS V14.00,2013-07-29 06:47:00,
2013-07-29 01:50:00,79.9,72.1,29.58,ESE,121,6.0,8.0,77,0.00,,SKC,0.00,0.00,VWS V14.01,2013-07-29 06:50:00,
2013-07-29 01:52:00,79.9,72.1,29.59,ESE,121,6.0,6.0,77,0.00,,SKC,0.00,0.00,VWS V14.00,2013-07-29 06:52:00,
2013-07-29 01:57:00,79.8,71.9,29.59,ESE,121,6.0,12.0,77,0.00,,SKC,0.00,0.00,VWS V14.00,2013-07-29 06:57:00,
2013-07-29 02:00:00,79.7,71.9,29.59,ESE,120,4.0,14.0,77,0.00,,SKC,0.00,0.00,VWS V14.01,2013-07-29 07:00:00,
2013-07-29 02:02:00,79.6,71.8,29.59,ESE,120,8.0,8.0,77,0.00,,SKC,0.00,0.00,VWS V14.00,2013-07-29 07:02:00,
2013-07-29 02:07:00,79.6,72.1,29.59,ESE,120,5.0,13.0,78,0.00,,SKC,0.00,0.00,VWS V14.00,2013-07-29 07:07:00,
2013-07-29 02:10:00,79.5,72.0,29.58,ESE,121,13.0,15.0,78,0.00,,SKC,0.00,0.00,VWS V14.01,2013-07-29 07:10:00,
2013-07-29 02:12:00,79.5,72.0,29.59,ESE,120,12.0,14.0,78,0.00,,SKC,0.00,0.00,VWS V14.00,2013-07-29 07:12:00,
2013-07-29 02:17:00,79.3,71.8,29.59,SE,124,6.0,16.0,78,0.00,,SKC,0.00,0.00,VWS V14.00,2013-07-29 07:17:00,
2013-07-29 02:20:00,79.2,72.1,29.59,SE,128,7.0,16.0,79,0.00,,SKC,0.00,0.00,VWS V14.01,2013-07-29 07:20:00,
2013-07-29 02:22:00,79.2,72.1,29.58,SE,128,8.0,12.0,79,0.00,,SKC,0.00,0.00,VWS V14.00,2013-07-29 07:22:00,
2013-07-29 02:27:00,79.0,71.9,29.58,SE,128,9.0,13.0,79,0.00,,SKC,0.00,0.00,VWS V14.00,2013-07-29 07:27:00,
2013-07-29 02:30:00,78.9,71.8,29.58,SE,128,6.0,16.0,79,0.00,,SKC,0.00,0.00,VWS V14.01,2013-07-29 07:30:00,
2013-07-29 02:32:00,78.9,71.8,29.58,SE,128,4.0,7.0,79,0.00,,SKC,0.00,0.00,VWS V14.00,2013-07-29 07:32:00,
2013-07-29 02:37:00,78.8,72.1,29.58,SE,128,6.0,14.0,80,0.00,,SKC,0.00,0.00,VWS V14.00,2013-07-29 07:37:00,
2013-07-29 02:40:00,78.6,71.9,29.59,SE,128,12.0,14.0,80,0.00,,SKC,0.00,0.00,VWS V14.01,2013-07-29 07:40:00,
2013-07-29 02:42:00,78.6,71.9,29.59,SE,128,6.0,7.0,80,0.00,,SKC,0.00,0.00,VWS V14.00,2013-07-29 07:42:00,
2013-07-29 02:47:00,78.4,72.1,29.58,SE,127,6.0,14.0,81,0.00,,SKC,0.00,0.00,VWS V14.00,2013-07-29 07:47:00,
2013-07-29 02:50:00,78.3,72.0,29.58,SE,127,6.0,14.0,81,0.00,,SKC,0.00,0.00,VWS V14.01,2013-07-29 07:50:00,
2013-07-29 02:52:00,78.3,72.0,29.59,SE,128,11.0,13.0,81,0.00,,SKC,0.00,0.00,VWS V14.00,2013-07-29 07:52:00,
2013-07-29 02:57:00,78.2,71.9,29.59,SE,127,6.0,13.0,81,0.00,,SKC,0.00,0.00,VWS V14.00,2013-07-29 07:57:00,
2013-07-29 03:00:00,78.1,71.8,29.58,SE,127,4.0,13.0,81,0.00,,SKC,0.00,0.00,VWS V14.01,2013-07-29 08:00:00,
2013-07-29 03:02:00,78.1,71.8,29.58,SE,127,4.0,7.0,81,0.00,,SKC,0.00,0.00,VWS V14.00,2013-07-29 08:02:00,
2013-07-29 03:07:00,78.0,72.1,29.59,SE,126,9.0,12.0,82,0.00,,SKC,0.00,0.00,VWS V14.00,2013-07-29 08:07:00,
2013-07-29 03:10:00,77.9,72.0,29.59,SE,126,7.0,12.0,82,0.00,,SKC,0.00,0.00,VWS V14.01,2013-07-29 08:10:00,
2013-07-29 03:12:00,77.9,72.0,29.58,SE,126,6.0,9.0,82,0.00,,SKC,0.00,0.00,VWS V14.00,2013-07-29 08:12:00,
2013-07-29 03:17:00,77.9,72.0,29.58,SE,126,5.0,16.0,82,0.00,,SKC,0.00,0.00,VWS V14.00,2013-07-29 08:17:00,
2013-07-29 03:20:00,77.8,71.9,29.58,SE,125,15.0,16.0,82,0.00,,SKC,0.00,0.00,VWS V14.01,2013-07-29 08:20:00,
2013-07-29 03:22:00,77.8,71.9,29.58,SE,128,9.0,16.0,82,0.00,,SKC,0.00,0.00,VWS V14.00,2013-07-29 08:22:00,
2013-07-29 03:27:00,77.8,71.9,29.58,SE,128,6.0,16.0,82,0.00,,SKC,0.00,0.00,VWS V14.00,2013-07-29 08:27:00,
2013-07-29 03:30:00,77.7,71.8,29.58,SE,128,9.0,16.0,82,0.00,,SKC,0.00,0.00,VWS V14.01,2013-07-29 08:30:00,
2013-07-29 03:32:00,77.8,71.9,29.58,SE,128,5.0,11.0,82,0.00,,SKC,0.00,0.00,VWS V14.00,2013-07-29 08:32:00,
2013-07-29 03:37:00,77.7,71.8,29.58,SE,128,2.0,11.0,82,0.00,,SKC,0.00,0.00,VWS V14.00,2013-07-29 08:37:00,
2013-07-29 03:40:00,77.7,71.8,29.58,SE,128,8.0,12.0,82,0.00,,SKC,0.00,0.00,VWS V14.01,2013-07-29 08:40:00,
2013-07-29 03:42:00,77.7,71.8,29.58,SE,128,6.0,7.0,82,0.00,,SKC,0.00,0.00,VWS V14.00,2013-07-29 08:42:00,
2013-07-29 03:47:00,77.7,71.8,29.59,SE,128,8.0,12.0,82,0.00,,SKC,0.00,0.00,VWS V14.00,2013-07-29 08:47:00,
2013-07-29 03:50:00,77.8,71.9,29.58,SE,128,4.0,12.0,82,0.00,,SKC,0.00,0.00,VWS V14.01,2013-07-29 08:50:00,
2013-07-29 03:52:00,77.8,71.9,29.58,SE,128,7.0,7.0,82,0.00,,SKC,0.00,0.00,VWS V14.00,2013-07-29 08:52:00,
2013-07-29 03:57:00,77.8,71.9,29.58,SE,128,6.0,9.0,82,0.00,,SKC,0.00,0.00,VWS V14.00,2013-07-29 08:57:00,
2013-07-29 04:00:00,77.8,71.9,29.58,SE,128,5.0,9.0,82,0.00,,SKC,0.00,0.00,VWS V14.01,2013-07-29 09:00:00,
2013-07-29 04:02:00,77.8,71.9,29.58,SE,128,4.0,6.0,82,0.00,,SKC,0.00,0.00,VWS V14.00,2013-07-29 09:02:00,
2013-07-29 04:07:00,77.8,71.9,29.59,SE,128,2.0,8.0,82,0.00,,SKC,0.00,0.00,VWS V14.00,2013-07-29 09:07:00,
2013-07-29 04:10:00,77.8,71.9,29.59,SE,128,4.0,12.0,82,0.00,,SKC,0.00,0.00,VWS V14.01,2013-07-29 09:10:00,
2013-07-29 04:12:00,77.8,71.9,29.59,SE,128,6.0,8.0,82,0.00,,SKC,0.00,0.00,VWS V14.00,2013-07-29 09:12:00,
2013-07-29 04:17:00,77.7,71.8,29.59,SE,128,6.0,12.0,82,0.00,,SKC,0.00,0.00,VWS V14.00,2013-07-29 09:17:00,
2013-07-29 04:20:00,77.7,71.8,29.58,SE,128,5.0,12.0,82,0.00,,SKC,0.00,0.00,VWS V14.01,2013-07-29 09:20:00,
2013-07-29 04:22:00,77.7,71.8,29.59,SE,128,6.0,9.0,82,0.00,,SKC,0.00,0.00,VWS V14.00,2013-07-29 09:22:00,
2013-07-29 04:27:00,77.7,71.8,29.59,SE,128,8.0,11.0,82,0.00,,SKC,0.00,0.00,VWS V14.00,2013-07-29 09:27:00,
2013-07-29 04:30:00,77.7,71.8,29.58,SE,128,5.0,11.0,82,0.00,,SKC,0.00,0.00,VWS V14.01,2013-07-29 09:30:00,
2013-07-29 04:32:00,77.6,71.7,29.59,SE,128,2.0,6.0,82,0.00,,SKC,0.00,0.00,VWS V14.00,2013-07-29 09:32:00,
2013-07-29 04:37:00,77.7,71.8,29.58,SE,128,8.0,14.0,82,0.00,,SKC,0.00,0.00,VWS V14.00,2013-07-29 09:37:00,
2013-07-29 04:40:00,77.7,71.8,29.58,SE,128,6.0,14.0,82,0.00,,SKC,0.00,0.00,VWS V14.01,2013-07-29 09:40:00,
2013-07-29 04:42:00,77.7,71.8,29.58,SE,128,1.0,6.0,82,0.00,,SKC,0.00,0.00,VWS V14.00,2013-07-29 09:42:00,
2013-07-29 04:47:00,77.7,71.8,29.59,SE,128,4.0,9.0,82,0.00,,SKC,0.00,0.00,VWS V14.00,2013-07-29 09:47:00,
2013-07-29 04:50:00,77.6,71.7,29.59,SE,130,8.0,15.0,82,0.00,,SKC,0.00,0.00,VWS V14.01,2013-07-29 09:50:00,
2013-07-29 04:52:00,77.7,71.8,29.59,SE,130,6.0,11.0,82,0.00,,SKC,0.00,0.00,VWS V14.00,2013-07-29 09:52:00,
2013-07-29 04:57:00,77.7,71.8,29.59,SE,130,11.0,13.0,82,0.00,,SKC,0.00,0.00,VWS V14.00,2013-07-29 09:57:00,
2013-07-29 05:00:00,77.6,71.7,29.59,SE,130,5.0,13.0,82,0.00,,SKC,0.00,0.00,VWS V14.01,2013-07-29 10:00:00,
2013-07-29 05:02:00,77.7,71.8,29.59,SE,130,9.0,9.0,82,0.00,,SKC,0.00,0.00,VWS V14.00,2013-07-29 10:02:00,
2013-07-29 05:07:00,77.6,71.7,29.59,SE,130,4.0,11.0,82,0.00,,SKC,0.00,0.00,VWS V14.00,2013-07-29 10:07:00,
2013-07-29 05:10:00,77.5,71.2,29.59,SE,130,8.0,11.0,81,0.00,,SKC,0.00,0.00,VWS V14.01,2013-07-29 10:10:00,
2013-07-29 05:12:00,77.5,71.2,29.59,SE,130,7.0,13.0,81,0.00,,SKC,0.00,0.00,VWS V14.00,2013-07-29 10:12:00,
2013-07-29 05:17:00,77.5,71.2,29.59,SE,131,5.0,15.0,81,0.00,,SKC,0.00,0.00,VWS V14.00,2013-07-29 10:17:00,
2013-07-29 05:20:00,77.4,71.1,29.59,SE,132,7.0,18.0,81,0.00,,SKC,0.00,0.00,VWS V14.01,2013-07-29 10:20:00,
2013-07-29 05:22:00,77.4,71.1,29.59,SE,132,8.0,11.0,81,0.00,,SKC,0.00,0.00,VWS V14.00,2013-07-29 10:22:00,
2013-07-29 05:27:00,77.4,71.1,29.59,SE,133,4.0,16.0,81,0.00,,SKC,0.00,0.00,VWS V14.00,2013-07-29 10:27:00,
2013-07-29 05:30:00,77.3,71.4,29.58,SE,136,11.0,18.0,82,0.00,,SKC,0.00,0.00,VWS V14.01,2013-07-29 10:30:00,
2013-07-29 05:32:00,77.3,71.4,29.58,SE,136,11.0,13.0,82,0.00,,SKC,0.00,0.00,VWS V14.00,2013-07-29 10:32:00,
2013-07-29 05:37:00,77.2,71.3,29.59,SE,136,10.0,13.0,82,0.00,,SKC,0.00,0.00,VWS V14.00,2013-07-29 10:37:00,
2013-07-29 05:40:00,77.2,71.3,29.59,SE,136,7.0,13.0,82,0.00,,SKC,0.00,0.00,VWS V14.01,2013-07-29 10:40:00,
2013-07-29 05:43:00,77.1,71.2,29.58,SE,136,7.0,15.0,82,0.00,,SKC,0.00,0.00,VWS V14.00,2013-07-29 10:43:00,
2013-07-29 05:48:00,77.1,71.2,29.59,SE,136,5.0,15.0,82,0.00,,SKC,0.00,0.00,VWS V14.00,2013-07-29 10:48:00,
2013-07-29 05:50:00,77.0,71.1,29.58,SE,136,4.0,15.0,82,0.00,,SKC,0.00,0.00,VWS V14.01,2013-07-29 10:50:00,
2013-07-29 05:53:00,77.0,71.1,29.58,SE,136,2.0,12.0,82,0.00,,SKC,0.00,0.00,VWS V14.00,2013-07-29 10:53:00,
2013-07-29 05:58:00,76.9,71.0,29.59,SE,136,12.0,12.0,82,0.00,,SKC,0.00,0.00,VWS V14.00,2013-07-29 10:58:00,
2013-07-29 06:00:00,76.8,70.9,29.59,SE,136,4.0,13.0,82,0.00,,SKC,0.00,0.00,VWS V14.01,2013-07-29 11:00:00,
2013-07-29 06:03:00,76.8,70.9,29.59,SE,136,6.0,7.0,82,0.00,,SKC,0.00,0.00,VWS V14.00,2013-07-29 11:03:00,
2013-07-29 06:08:00,76.7,70.8,29.59,SE,136,5.0,11.0,82,0.00,,SKC,0.00,0.00,VWS V14.00,2013-07-29 11:08:00,
2013-07-29 06:10:00,76.7,70.8,29.59,SE,136,2.0,11.0,82,0.00,,SKC,0.00,0.00,VWS V14.01,2013-07-29 11:10:00,
2013-07-29 06:13:00,76.7,71.2,29.59,SE,136,9.0,9.0,83,0.00,,SKC,0.00,0.00,VWS V14.00,2013-07-29 11:13:00,
2013-07-29 06:18:00,76.6,71.1,29.60,SE,136,5.0,10.0,83,0.00,,SKC,0.00,0.00,VWS V14.00,2013-07-29 11:18:00,
2013-07-29 06:20:00,76.6,71.1,29.60,SE,136,6.0,10.0,83,0.00,,SKC,0.00,0.00,VWS V14.01,2013-07-29 11:20:00,
2013-07-29 06:23:00,76.5,71.0,29.60,SE,136,4.0,11.0,83,0.00,,SKC,0.00,0.00,VWS V14.00,2013-07-29 11:23:00,
2013-07-29 06:28:00,76.4,70.9,29.60,SE,136,0.0,11.0,83,0.00,,SKC,0.00,0.00,VWS V14.00,2013-07-29 11:28:00,
2013-07-29 06:30:00,76.4,70.9,29.60,SE,136,0.0,11.0,83,0.00,,SKC,0.00,0.00,VWS V14.01,2013-07-29 11:30:00,
2013-07-29 06:33:00,76.4,70.9,29.60,SE,136,0.0,7.0,83,0.00,,SKC,0.00,0.00,VWS V14.00,2013-07-29 11:33:00,
2013-07-29 06:38:00,76.3,70.8,29.61,SE,136,7.0,7.0,83,0.00,,SKC,0.00,0.00,VWS V14.00,2013-07-29 11:38:00,
2013-07-29 06:40:00,76.2,70.7,29.61,SE,136,6.0,9.0,83,0.00,,SKC,0.00,0.00,VWS V14.01,2013-07-29 11:40:00,
2013-07-29 06:44:00,76.2,70.7,29.60,SE,136,6.0,9.0,83,0.00,,SKC,0.00,0.00,VWS V14.00,2013-07-29 11:44:00,
2013-07-29 06:48:00,76.1,70.6,29.61,SE,136,4.0,12.0,83,0.00,,SKC,0.00,5.00,VWS V14.00,2013-07-29 11:48:00,
2013-07-29 06:50:00,76.1,70.6,29.60,SE,136,4.0,12.0,83,0.00,,SKC,0.00,7.00,VWS V14.01,2013-07-29 11:50:00,
2013-07-29 06:53:00,76.1,70.6,29.60,SE,136,2.0,5.0,83,0.00,,SKC,0.00,7.00,VWS V14.00,2013-07-29 11:53:00,
2013-07-29 06:59:00,76.0,70.5,29.60,SE,136,7.0,8.0,83,0.00,,SKC,0.00,14.00,VWS V14.00,2013-07-29 11:59:00,
2013-07-29 07:00:00,76.0,70.5,29.60,SE,138,2.0,11.0,83,0.00,,SKC,0.00,18.00,VWS V14.01,2013-07-29 12:00:00,
2013-07-29 07:04:00,76.0,70.5,29.60,SE,138,6.0,11.0,83,0.00,,SKC,0.00,19.00,VWS V14.00,2013-07-29 12:04:00,
2013-07-29 07:09:00,76.0,70.5,29.61,SE,138,4.0,11.0,83,0.00,,SKC,0.00,26.00,VWS V14.00,2013-07-29 12:09:00,
2013-07-29 07:10:00,76.0,70.5,29.61,SE,138,7.0,11.0,83,0.00,,SKC,0.00,30.00,VWS V14.01,2013-07-29 12:10:00,
2013-07-29 07:14:00,75.9,70.4,29.61,SE,138,5.0,8.0,83,0.00,,SKC,0.00,33.00,VWS V14.00,2013-07-29 12:14:00,
2013-07-29 07:19:00,75.9,70.7,29.62,SE,139,10.0,13.0,84,0.00,,SKC,0.00,40.00,VWS V14.00,2013-07-29 12:19:00,
2013-07-29 07:20:00,75.9,70.7,29.62,SE,139,5.0,13.0,84,0.00,,SKC,0.00,44.00,VWS V14.01,2013-07-29 12:20:00,
2013-07-29 07:24:00,76.0,70.8,29.61,SE,139,0.0,8.0,84,0.00,,SKC,0.00,51.00,VWS V14.00,2013-07-29 12:24:00,
2013-07-29 07:29:00,76.0,70.8,29.62,SE,139,6.0,8.0,84,0.00,,SKC,0.00,62.00,VWS V14.00,2013-07-29 12:29:00,
2013-07-29 07:30:00,76.0,70.8,29.61,SE,139,6.0,9.0,84,0.00,,SKC,0.00,67.00,VWS V14.01,2013-07-29 12:30:00,
2013-07-29 07:34:00,76.0,70.8,29.62,SE,139,2.0,9.0,84,0.00,,SKC,0.00,63.00,VWS V14.00,2013-07-29 12:34:00,
2013-07-29 07:39:00,76.1,70.9,29.62,SE,139,0.0,9.0,84,0.00,,SKC,0.00,63.00,VWS V14.00,2013-07-29 12:39:00,
2013-07-29 07:40:00,76.2,71.0,29.62,SE,139,10.0,10.0,84,0.00,,SKC,0.00,63.00,VWS V14.01,2013-07-29 12:40:00,
2013-07-29 07:44:00,76.2,71.0,29.63,SE,139,4.0,10.0,84,0.00,,SKC,0.00,70.00,VWS V14.00,2013-07-29 12:44:00,
2013-07-29 07:49:00,76.3,70.8,29.62,SE,139,6.0,11.0,83,0.00,,SKC,0.00,91.00,VWS V14.00,2013-07-29 12:49:00,
2013-07-29 07:50:00,76.4,70.9,29.63,SE,139,0.0,11.0,83,0.00,,SKC,0.00,91.00,VWS V14.01,2013-07-29 12:50:00,
2013-07-29 07:54:00,76.5,71.0,29.63,SE,139,5.0,8.0,83,0.00,,SKC,0.00,83.00,VWS V14.00,2013-07-29 12:54:00,
2013-07-29 07:59:00,76.7,70.8,29.63,SE,138,4.0,11.0,82,0.00,,SKC,0.00,98.00,VWS V14.00,2013-07-29 12:59:00,
2013-07-29 08:00:00,76.7,70.8,29.63,SE,138,4.0,11.0,82,0.00,,SKC,0.00,93.00,VWS V14.01,2013-07-29 13:00:00,
2013-07-29 08:04:00,76.8,70.9,29.63,SE,138,5.0,11.0,82,0.00,,SKC,0.00,111.00,VWS V14.00,2013-07-29 13:04:00,
2013-07-29 08:09:00,77.1,70.8,29.63,SE,138,6.0,12.0,81,0.00,,SKC,0.00,116.00,VWS V14.00,2013-07-29 13:09:00,
2013-07-29 08:10:00,77.1,70.8,29.63,SE,138,7.0,13.0,81,0.00,,SKC,0.00,121.00,VWS V14.01,2013-07-29 13:10:00,
2013-07-29 08:14:00,77.2,70.9,29.63,SE,138,2.0,12.0,81,0.00,,SKC,0.00,118.00,VWS V14.00,2013-07-29 13:14:00,
2013-07-29 08:19:00,77.4,70.8,29.64,SE,138,5.0,12.0,80,0.00,,SKC,0.00,134.00,VWS V14.00,2013-07-29 13:19:00,
2013-07-29 08:20:00,77.5,70.8,29.64,SE,138,2.0,12.0,80,0.00,,SKC,0.00,218.00,VWS V14.01,2013-07-29 13:20:00,
2013-07-29 08:25:00,77.7,70.7,29.63,SE,139,5.0,13.0,79,0.00,,SKC,0.00,230.00,VWS V14.00,2013-07-29 13:25:00,
2013-07-29 08:30:00,78.0,71.0,29.64,SE,140,9.0,14.0,79,0.00,,SKC,0.00,250.00,VWS V14.00,2013-07-29 13:30:00,
2013-07-29 08:35:00,78.2,70.8,29.63,SE,140,7.0,11.0,78,0.00,,SKC,0.00,229.00,VWS V14.00,2013-07-29 13:35:00,
2013-07-29 08:40:00,78.4,70.6,29.63,SE,142,10.0,14.0,77,0.00,,SKC,0.00,246.00,VWS V14.00,2013-07-29 13:40:00,
2013-07-29 08:45:00,78.6,70.8,29.63,SE,142,5.0,12.0,77,0.00,,SKC,0.00,272.00,VWS V14.00,2013-07-29 13:45:00,
2013-07-29 08:50:00,78.8,70.6,29.63,SE,142,7.0,12.0,76,0.00,,SKC,0.00,287.00,VWS V14.00,2013-07-29 13:50:00,
2013-07-29 08:55:00,79.1,70.5,29.63,SE,144,8.0,14.0,75,0.00,,SKC,0.00,323.00,VWS V14.00,2013-07-29 13:55:00,
2013-07-29 09:00:00,79.3,70.7,29.64,SE,146,12.0,17.0,75,0.00,,SKC,0.00,343.00,VWS V14.00,2013-07-29 14:00:00,
2013-07-29 09:05:00,79.3,70.3,29.64,SSE,149,14.0,15.0,74,0.00,,SKC,0.00,367.00,VWS V14.00,2013-07-29 14:05:00,
2013-07-29 09:10:00,79.4,70.4,29.64,SSE,157,7.0,15.0,74,0.00,,SKC,0.00,383.00,VWS V14.00,2013-07-29 14:10:00,
2013-07-29 09:15:00,79.5,70.5,29.64,SSE,150,10.0,12.0,74,0.00,,SKC,0.00,397.00,VWS V14.00,2013-07-29 14:15:00,
2013-07-29 09:20:00,79.9,70.9,29.64,SSE,151,4.0,12.0,74,0.00,,SKC,0.00,454.00,VWS V14.00,2013-07-29 14:20:00,
2013-07-29 09:25:00,80.5,71.1,29.64,SSE,151,6.0,13.0,73,0.00,,SKC,0.00,473.00,VWS V14.00,2013-07-29 14:25:00,
2013-07-29 09:30:00,80.8,70.9,29.64,SSE,152,7.0,13.0,72,0.00,,SKC,0.00,213.00,VWS V14.01,2013-07-29 14:30:00,
2013-07-29 09:31:00,80.8,70.9,29.64,SSE,152,4.0,13.0,72,0.00,,SKC,0.00,489.00,VWS V14.00,2013-07-29 14:31:00,
2013-07-29 09:36:00,80.7,70.8,29.64,SSE,152,6.0,10.0,72,0.00,,SKC,0.00,195.00,VWS V14.00,2013-07-29 14:36:00,
2013-07-29 09:40:00,80.5,70.7,29.65,SSE,152,5.0,13.0,72,0.00,,SKC,0.00,171.00,VWS V14.01,2013-07-29 14:40:00,
2013-07-29 09:41:00,80.6,70.8,29.65,SSE,152,10.0,13.0,72,0.00,,SKC,0.00,174.00,VWS V14.00,2013-07-29 14:41:00,
2013-07-29 09:46:00,80.3,70.9,29.65,SSE,152,7.0,10.0,73,0.00,,SKC,0.00,172.00,VWS V14.00,2013-07-29 14:46:00,
2013-07-29 09:50:00,80.2,70.8,29.65,SSE,151,8.0,10.0,73,0.00,,SKC,0.00,185.00,VWS V14.01,2013-07-29 14:50:00,
2013-07-29 09:51:00,80.2,70.8,29.65,SSE,151,8.0,10.0,73,0.00,,SKC,0.00,185.00,VWS V14.00,2013-07-29 14:51:00,
2013-07-29 09:56:00,80.2,70.8,29.65,SSE,151,4.0,12.0,73,0.00,,SKC,0.00,211.00,VWS V14.00,2013-07-29 14:56:00,
2013-07-29 10:00:00,80.5,71.1,29.65,SSE,151,2.0,12.0,73,0.00,,SKC,0.00,478.00,VWS V14.01,2013-07-29 15:00:00,
2013-07-29 10:02:00,80.5,71.1,29.65,SSE,151,2.0,12.0,73,0.00,,SKC,0.00,478.00,VWS V14.00,2013-07-29 15:02:00,
2013-07-29 10:06:00,81.1,70.8,29.66,SSE,148,6.0,19.0,71,0.00,,SKC,0.00,582.00,VWS V14.00,2013-07-29 15:06:00,
2013-07-29 10:10:00,81.7,71.0,29.65,SSE,148,5.0,19.0,70,0.00,,SKC,0.00,585.00,VWS V14.01,2013-07-29 15:10:00,
2013-07-29 10:12:00,81.7,71.0,29.65,SSE,148,7.0,7.0,70,0.00,,SKC,0.00,591.00,VWS V14.00,2013-07-29 15:12:00,
2013-07-29 10:17:00,82.3,71.1,29.65,SSE,149,7.0,10.0,69,0.00,,SKC,0.00,598.00,VWS V14.00,2013-07-29 15:17:00,
2013-07-29 10:20:00,82.8,71.2,29.65,SSE,148,5.0,12.0,68,0.00,,SKC,0.00,612.00,VWS V14.01,2013-07-29 15:20:00,
2013-07-29 10:22:00,82.9,70.8,29.64,SSE,148,11.0,11.0,67,0.00,,SKC,0.00,612.00,VWS V14.00,2013-07-29 15:22:00,
2013-07-29 10:27:00,83.1,71.0,29.65,SSE,148,8.0,18.0,67,0.00,,SKC,0.00,629.00,VWS V14.00,2013-07-29 15:27:00,
2013-07-29 10:30:00,83.3,71.2,29.65,SSE,150,5.0,18.0,67,0.00,,SKC,0.00,605.00,VWS V14.01,2013-07-29 15:30:00,
2013-07-29 10:32:00,83.4,71.3,29.65,SSE,156,9.0,14.0,67,0.00,,SKC,0.00,657.00,VWS V14.00,2013-07-29 15:32:00,
2013-07-29 10:37:00,83.8,71.2,29.65,SSE,156,7.0,14.0,66,0.00,,SKC,0.00,656.00,VWS V14.00,2013-07-29 15:37:00,
2013-07-29 10:40:00,84.0,71.0,29.64,SSE,156,7.0,14.0,65,0.00,,SKC,0.00,663.00,VWS V14.01,2013-07-29 15:40:00,
2013-07-29 10:42:00,84.1,71.1,29.64,SSE,156,5.0,7.0,65,0.00,,SKC,0.00,657.00,VWS V14.00,2013-07-29 15:42:00,
2013-07-29 10:47:00,84.3,71.3,29.65,SSE,154,1.0,13.0,65,0.00,,SKC,0.00,682.00,VWS V14.00,2013-07-29 15:47:00,
2013-07-29 10:50:00,84.6,71.1,29.64,SSE,153,9.0,16.0,64,0.00,,SKC,0.00,694.00,VWS V14.01,2013-07-29 15:50:00,
2013-07-29 10:52:00,84.6,71.1,29.64,SSE,153,4.0,15.0,64,0.00,,SKC,0.00,696.00,VWS V14.00,2013-07-29 15:52:00,
2013-07-29 10:57:00,85.1,71.1,29.64,SE,146,6.0,15.0,63,0.00,,SKC,0.00,712.00,VWS V14.00,2013-07-29 15:57:00,
2013-07-29 11:00:00,85.4,70.9,29.65,SSE,166,7.0,15.0,62,0.00,,SKC,0.00,724.00,VWS V14.01,2013-07-29 16:00:00,
2013-07-29 11:02:00,85.4,70.9,29.65,SSE,165,10.0,10.0,62,0.00,,SKC,0.00,724.00,VWS V14.00,2013-07-29 16:02:00,
2013-07-29 11:07:00,85.2,70.7,29.64,SSE,157,7.0,21.0,62,0.00,,SKC,0.00,738.00,VWS V14.00,2013-07-29 16:07:00,
2013-07-29 11:10:00,85.2,69.8,29.64,SSE,165,8.0,21.0,60,0.00,,SKC,0.00,747.00,VWS V14.01,2013-07-29 16:10:00,
2013-07-29 11:12:00,85.3,69.8,29.64,SSE,165,12.0,12.0,60,0.00,,SKC,0.00,749.00,VWS V14.00,2013-07-29 16:12:00,
2013-07-29 11:17:00,85.7,70.2,29.64,SSE,167,11.0,12.0,60,0.00,,SKC,0.00,754.00,VWS V14.00,2013-07-29 16:17:00,
2013-07-29 11:20:00,86.1,71.1,29.64,SSE,167,6.0,13.0,61,0.00,,SKC,0.00,765.00,VWS V14.01,2013-07-29 16:20:00,
2013-07-29 11:22:00,86.2,71.2,29.63,SSE,166,16.0,16.0,61,0.00,,SKC,0.00,768.00,VWS V14.00,2013-07-29 16:22:00,
2013-07-29 11:27:00,86.6,70.1,29.64,SE,140,6.0,17.0,58,0.00,,SKC,0.00,780.00,VWS V14.00,2013-07-29 16:27:00,
2013-07-29 11:30:00,86.7,69.7,29.64,SSE,151,12.0,17.0,57,0.00,,SKC,0.00,789.00,VWS V14.01,2013-07-29 16:30:00,
2013-07-29 11:32:00,86.7,69.1,29.64,SSE,152,11.0,13.0,56,0.00,,SKC,0.00,793.00,VWS V14.00,2013-07-29 16:32:00,
2013-07-29 11:38:00,87.1,69.5,29.64,SSE,156,8.0,14.0,56,0.00,,SKC,0.00,798.00,VWS V14.00,2013-07-29 16:38:00,
2013-07-29 11:40:00,87.4,70.3,29.64,SSE,155,7.0,14.0,57,0.00,,SKC,0.00,805.00,VWS V14.01,2013-07-29 16:40:00,
2013-07-29 11:43:00,87.4,69.8,29.64,SSE,155,7.0,14.0,56,0.00,,SKC,0.00,809.00,VWS V14.00,2013-07-29 16:43:00,
2013-07-29 11:48:00,87.7,70.1,29.63,SSE,155,5.0,14.0,56,0.00,,SKC,0.00,828.00,VWS V14.00,2013-07-29 16:48:00,
2013-07-29 11:50:00,88.3,68.5,29.63,SSE,157,6.0,14.0,52,0.00,,SKC,0.00,831.00,VWS V14.01,2013-07-29 16:50:00,
2013-07-29 11:53:00,88.4,68.6,29.63,SSE,157,9.0,9.0,52,0.00,,SKC,0.00,840.00,VWS V14.00,2013-07-29 16:53:00,
2013-07-29 11:58:00,89.0,66.8,29.63,South,171,12.0,16.0,48,0.00,,SKC,0.00,851.00,VWS V14.00,2013-07-29 16:58:00,
2013-07-29 12:00:00,89.3,67.1,29.63,South,169,12.0,16.0,48,0.00,,SKC,0.00,854.00,VWS V14.01,2013-07-29 17:00:00,
2013-07-29 12:03:00,89.3,65.8,29.63,SSE,167,8.0,14.0,46,0.00,,SKC,0.00,856.00,VWS V14.00,2013-07-29 17:03:00,
2013-07-29 12:08:00,89.4,67.1,29.63,SSE,167,9.0,14.0,48,0.00,,SKC,0.00,863.00,VWS V14.00,2013-07-29 17:08:00,
2013-07-29 12:10:00,89.8,65.6,29.63,SSE,158,11.0,16.0,45,0.00,,SKC,0.00,874.00,VWS V14.01,2013-07-29 17:10:00,
2013-07-29 12:13:00,89.9,65.7,29.62,SSE,158,7.0,12.0,45,0.00,,SKC,0.00,875.00,VWS V14.00,2013-07-29 17:13:00,
2013-07-29 12:18:00,90.4,64.9,29.63,SSE,160,9.0,13.0,43,0.00,,SKC,0.00,888.00,VWS V14.00,2013-07-29 17:18:00,
2013-07-29 12:20:00,90.6,65.1,29.64,SSE,167,6.0,15.0,43,0.00,,SKC,0.00,891.00,VWS V14.01,2013-07-29 17:20:00,
2013-07-29 12:23:00,90.6,65.1,29.63,SSE,167,9.0,10.0,43,0.00,,SKC,0.00,893.00,VWS V14.00,2013-07-29 17:23:00,
2013-07-29 12:28:00,90.8,63.9,29.63,SSE,153,9.0,15.0,41,0.00,,SKC,0.00,902.00,VWS V14.00,2013-07-29 17:28:00,
2013-07-29 12:30:00,90.9,64.7,29.63,SSE,155,5.0,15.0,42,0.00,,SKC,0.00,907.00,VWS V14.01,2013-07-29 17:30:00,
2013-07-29 12:33:00,91.0,64.7,29.63,SSE,157,12.0,14.0,42,0.00,,SKC,0.00,907.00,VWS V14.00,2013-07-29 17:33:00,
2013-07-29 12:38:00,91.5,64.5,29.63,SSE,167,7.0,14.0,41,0.00,,SKC,0.00,909.00,VWS V14.00,2013-07-29 17:38:00,
2013-07-29 12:40:00,91.9,64.9,29.63,SSE,167,5.0,14.0,41,0.00,,SKC,0.00,919.00,VWS V14.01,2013-07-29 17:40:00,
2013-07-29 12:43:00,92.2,65.1,29.63,SSE,168,11.0,13.0,41,0.00,,SKC,0.00,925.00,VWS V14.00,2013-07-29 17:43:00,
2013-07-29 12:49:00,92.5,64.7,29.63,South,171,9.0,14.0,40,0.00,,SKC,0.00,928.00,VWS V14.00,2013-07-29 17:49:00,
2013-07-29 12:50:00,92.6,64.8,29.62,South,173,5.0,14.0,40,0.00,,SKC,0.00,933.00,VWS V14.01,2013-07-29 17:50:00,
2013-07-29 12:54:00,92.7,63.4,29.63,South,172,6.0,12.0,38,0.00,,SKC,0.00,949.00,VWS V14.00,2013-07-29 17:54:00,
2013-07-29 12:59:00,92.7,62.6,29.63,South,173,5.0,15.0,37,0.00,,SKC,0.00,977.00,VWS V14.00,2013-07-29 17:59:00,
2013-07-29 13:00:00,92.9,62.8,29.63,South,173,9.0,15.0,37,0.00,,SKC,0.00,986.00,VWS V14.01,2013-07-29 18:00:00,
2013-07-29 13:04:00,93.1,63.8,29.63,South,173,6.0,11.0,38,0.00,,SKC,0.00,1000.00,VWS V14.00,2013-07-29 18:04:00,
2013-07-29 13:09:00,93.9,64.5,29.62,South,171,8.0,12.0,38,0.00,,SKC,0.00,986.00,VWS V14.00,2013-07-29 18:09:00,
2013-07-29 13:10:00,94.0,64.6,29.62,South,170,6.0,15.0,38,0.00,,SKC,0.00,972.00,VWS V14.01,2013-07-29 18:10:00,
2013-07-29 13:14:00,94.2,64.0,29.63,SSE,162,9.0,19.0,37,0.00,,SKC,0.00,956.00,VWS V14.00,2013-07-29 18:14:00,
2013-07-29 13:20:00,93.8,63.6,29.62,SSE,156,16.0,19.0,37,0.00,,SKC,0.00,958.00,VWS V14.00,2013-07-29 18:20:00,
2013-07-29 13:25:00,93.9,62.9,29.63,SSE,162,5.0,15.0,36,0.00,,SKC,0.00,962.00,VWS V14.00,2013-07-29 18:25:00,
2013-07-29 13:30:00,94.2,63.2,29.62,South,176,11.0,15.0,36,0.00,,SKC,0.00,960.00,VWS V14.00,2013-07-29 18:30:00,
2013-07-29 13:35:00,94.5,64.2,29.62,South,175,12.0,12.0,37,0.00,,SKC,0.00,962.00,VWS V14.00,2013-07-29 18:35:00,
2013-07-29 13:40:00,94.4,62.5,29.62,SSE,167,4.0,15.0,35,0.00,,SKC,0.00,962.00,VWS V14.00,2013-07-29 18:40:00,
2013-07-29 13:45:00,94.2,62.4,29.62,SSE,164,9.0,14.0,35,0.00,,SKC,0.00,962.00,VWS V14.00,2013-07-29 18:45:00,
2013-07-29 13:50:00,94.3,61.7,29.62,South,172,9.0,16.0,34,0.00,,SKC,0.00,967.00,VWS V14.00,2013-07-29 18:50:00,
2013-07-29 13:55:00,94.6,62.7,29.62,South,180,4.0,12.0,35,0.00,,SKC,0.00,963.00,VWS V14.00,2013-07-29 18:55:00,
2013-07-29 14:00:00,94.9,62.2,29.62,South,186,4.0,13.0,34,0.00,,SKC,0.00,967.00,VWS V14.00,2013-07-29 19:00:00,
2013-07-29 14:05:00,95.1,60.6,29.61,South,182,10.0,15.0,32,0.00,,SKC,0.00,969.00,VWS V14.00,2013-07-29 19:05:00,
2013-07-29 14:10:00,95.0,61.4,29.61,South,173,7.0,15.0,33,0.00,,SKC,0.00,958.00,VWS V14.00,2013-07-29 19:10:00,
2013-07-29 14:16:00,94.9,62.2,29.61,SSE,163,6.0,18.0,34,0.00,,SKC,0.00,960.00,VWS V14.00,2013-07-29 19:16:00,
2013-07-29 14:20:00,95.1,62.3,29.61,SSE,162,8.0,18.0,34,0.00,,SKC,0.00,954.00,VWS V14.01,2013-07-29 19:20:00,
2013-07-29 14:21:00,95.0,62.3,29.61,SSE,161,5.0,18.0,34,0.00,,SKC,0.00,947.00,VWS V14.00,2013-07-29 19:21:00,
2013-07-29 14:26:00,95.6,62.8,29.60,SSE,163,7.0,10.0,34,0.00,,SKC,0.00,951.00,VWS V14.00,2013-07-29 19:26:00,
2013-07-29 14:30:00,95.7,62.0,29.60,SE,130,13.0,18.0,33,0.00,,SKC,0.00,937.00,VWS V14.01,2013-07-29 19:30:00,
2013-07-29 14:31:00,95.7,62.9,29.60,SE,146,12.0,16.0,34,0.00,,SKC,0.00,937.00,VWS V14.00,2013-07-29 19:31:00,
2013-07-29 14:36:00,96.0,62.3,29.61,SSE,149,5.0,14.0,33,0.00,,SKC,0.00,949.00,VWS V14.00,2013-07-29 19:36:00,
2013-07-29 14:40:00,96.1,62.4,29.61,SSE,161,5.0,16.0,33,0.00,,SKC,0.00,928.00,VWS V14.01,2013-07-29 19:40:00,
2013-07-29 14:41:00,96.1,62.4,29.61,SSE,161,11.0,16.0,33,0.00,,SKC,0.00,928.00,VWS V14.00,2013-07-29 19:41:00,
2013-07-29 14:46:00,95.7,62.0,29.60,SSE,161,8.0,12.0,33,0.00,,SKC,0.00,921.00,VWS V14.00,2013-07-29 19:46:00,
2013-07-29 14:50:00,96.0,61.4,29.60,SSE,155,11.0,15.0,32,0.00,,SKC,0.00,916.00,VWS V14.01,2013-07-29 19:50:00,
2013-07-29 14:51:00,96.0,61.4,29.60,SSE,155,11.0,15.0,32,0.00,,SKC,0.00,916.00,VWS V14.00,2013-07-29 19:51:00,
2013-07-29 14:57:00,96.3,61.7,29.60,SSE,160,10.0,14.0,32,0.00,,SKC,0.00,912.00,VWS V14.00,2013-07-29 19:57:00,
2013-07-29 15:00:00,96.5,61.8,29.60,SSE,154,9.0,16.0,32,0.00,,SKC,0.00,916.00,VWS V14.01,2013-07-29 20:00:00,
2013-07-29 15:02:00,96.5,61.0,29.60,SSE,151,13.0,23.0,31,0.00,,SKC,0.00,916.00,VWS V14.00,2013-07-29 20:02:00,
2013-07-29 15:07:00,96.5,61.0,29.60,SSE,159,4.0,23.0,31,0.00,,SKC,0.00,916.00,VWS V14.00,2013-07-29 20:07:00,
2013-07-29 15:10:00,96.8,61.2,29.59,SSE,158,13.0,23.0,31,0.00,,SKC,0.00,900.00,VWS V14.01,2013-07-29 20:10:00,
2013-07-29 15:12:00,96.8,61.2,29.60,SSE,164,13.0,13.0,31,0.00,,SKC,0.00,907.00,VWS V14.00,2013-07-29 20:12:00,
2013-07-29 15:17:00,96.9,61.3,29.59,SSE,166,9.0,19.0,31,0.00,,SKC,0.00,907.00,VWS V14.00,2013-07-29 20:17:00,
2013-07-29 15:20:00,97.0,61.4,29.59,SSE,166,4.0,19.0,31,0.00,,SKC,0.00,886.00,VWS V14.01,2013-07-29 20:20:00,
2013-07-29 15:22:00,97.0,61.4,29.59,SSE,166,7.0,9.0,31,0.00,,SKC,0.00,886.00,VWS V14.00,2013-07-29 20:22:00,
2013-07-29 15:27:00,96.8,60.3,29.59,SE,142,7.0,22.0,30,0.00,,SKC,0.00,872.00,VWS V14.00,2013-07-29 20:27:00,
2013-07-29 15:30:00,96.8,60.3,29.59,SE,134,7.0,22.0,30,0.00,,SKC,0.00,877.00,VWS V14.01,2013-07-29 20:30:00,
2013-07-29 15:32:00,96.8,60.3,29.59,SE,134,9.0,11.0,30,0.00,,SKC,0.00,874.00,VWS V14.00,2013-07-29 20:32:00,
2013-07-29 15:37:00,96.7,60.2,29.59,SE,140,6.0,18.0,30,0.00,,SKC,0.00,856.00,VWS V14.00,2013-07-29 20:37:00,
2013-07-29 15:40:00,96.9,60.4,29.58,SE,131,6.0,19.0,30,0.00,,SKC,0.00,854.00,VWS V14.01,2013-07-29 20:40:00,
2013-07-29 15:42:00,97.0,60.5,29.58,SE,131,11.0,11.0,30,0.00,,SKC,0.00,851.00,VWS V14.00,2013-07-29 20:42:00,
2013-07-29 15:47:00,97.0,60.5,29.58,ESE,120,4.0,17.0,30,0.00,,SKC,0.00,846.00,VWS V14.00,2013-07-29 20:47:00,
2013-07-29 15:50:00,96.9,59.4,29.58,SSE,155,7.0,17.0,29,0.00,,SKC,0.00,826.00,VWS V14.01,2013-07-29 20:50:00,
2013-07-29 15:53:00,97.0,60.5,29.58,SSE,153,9.0,13.0,30,0.00,,SKC,0.00,838.00,VWS V14.00,2013-07-29 20:53:00,
2013-07-29 15:58:00,97.5,59.9,29.58,SSE,155,8.0,13.0,29,0.00,,SKC,0.00,831.00,VWS V14.00,2013-07-29 20:58:00,
2013-07-29 16:00:00,97.7,59.1,29.58,SE,142,7.0,17.0,28,0.00,,SKC,0.00,814.00,VWS V14.01,2013-07-29 21:00:00,
2013-07-29 16:03:00,97.7,59.1,29.58,SE,142,5.0,10.0,28,0.00,,SKC,0.00,812.00,VWS V14.00,2013-07-29 21:03:00,
2013-07-29 16:08:00,97.5,59.0,29.58,SE,144,13.0,21.0,28,0.00,,SKC,0.00,812.00,VWS V14.00,2013-07-29 21:08:00,
2013-07-29 16:10:00,97.4,59.8,29.58,SE,146,9.0,21.0,29,0.00,,SKC,0.00,791.00,VWS V14.01,2013-07-29 21:10:00,
2013-07-29 16:13:00,97.4,59.8,29.58,SE,146,10.0,14.0,29,0.00,,SKC,0.00,780.00,VWS V14.00,2013-07-29 21:13:00,
2013-07-29 16:18:00,97.2,58.7,29.58,SE,140,2.0,15.0,28,0.00,,SKC,0.00,786.00,VWS V14.00,2013-07-29 21:18:00,
2013-07-29 16:20:00,97.3,58.8,29.58,SE,139,10.0,15.0,28,0.00,,SKC,0.00,772.00,VWS V14.01,2013-07-29 21:20:00,
2013-07-29 16:23:00,97.4,58.9,29.57,SSE,155,13.0,19.0,28,0.00,,SKC,0.00,766.00,VWS V14.00,2013-07-29 21:23:00,
2013-07-29 16:28:00,97.3,58.8,29.57,SE,137,18.0,21.0,28,0.00,,SKC,0.00,759.00,VWS V14.00,2013-07-29 21:28:00,
2013-07-29 16:30:00,97.3,58.8,29.57,SE,131,8.0,21.0,28,0.00,,SKC,0.00,744.00,VWS V14.01,2013-07-29 21:30:00,
2013-07-29 16:33:00,97.2,58.7,29.57,SE,140,11.0,17.0,28,0.00,,SKC,0.00,744.00,VWS V14.00,2013-07-29 21:33:00,
2013-07-29 16:38:00,97.3,58.8,29.57,East,94,9.0,22.0,28,0.00,,SKC,0.00,726.00,VWS V14.00,2013-07-29 21:38:00,
2013-07-29 16:40:00,97.1,58.6,29.57,SE,126,12.0,22.0,28,0.00,,SKC,0.00,712.00,VWS V14.01,2013-07-29 21:40:00,
2013-07-29 16:43:00,97.1,58.6,29.57,SE,143,11.0,18.0,28,0.00,,SKC,0.00,717.00,VWS V14.00,2013-07-29 21:43:00,
2013-07-29 16:48:00,97.1,58.6,29.57,SE,126,15.0,18.0,28,0.00,,SKC,0.00,708.00,VWS V14.00,2013-07-29 21:48:00,
2013-07-29 16:50:00,97.2,58.7,29.58,South,185,6.0,18.0,28,0.00,,SKC,0.00,696.00,VWS V14.01,2013-07-29 21:50:00,
2013-07-29 16:53:00,97.3,59.8,29.58,SSE,149,5.0,11.0,29,0.00,,SKC,0.00,687.00,VWS V14.00,2013-07-29 21:53:00,
2013-07-29 16:58:00,97.6,60.0,29.58,SSE,150,14.0,14.0,29,0.00,,SKC,0.00,677.00,VWS V14.00,2013-07-29 21:58:00,
2013-07-29 17:00:00,97.8,59.2,29.57,South,179,9.0,15.0,28,0.00,,SKC,0.00,666.00,VWS V14.01,2013-07-29 22:00:00,
2013-07-29 17:03:00,97.8,59.2,29.57,SSE,167,7.0,10.0,28,0.00,,SKC,0.00,659.00,VWS V14.00,2013-07-29 22:03:00,
2013-07-29 17:08:00,97.5,59.0,29.57,SE,145,9.0,18.0,28,0.00,,SKC,0.00,645.00,VWS V14.00,2013-07-29 22:08:00,
2013-07-29 17:10:00,97.4,57.8,29.57,SE,140,14.0,18.0,27,0.00,,SKC,0.00,640.00,VWS V14.01,2013-07-29 22:10:00,
2013-07-29 17:13:00,97.4,58.9,29.57,SSE,157,5.0,12.0,28,0.00,,SKC,0.00,629.00,VWS V14.00,2013-07-29 22:13:00,
2013-07-29 17:18:00,97.6,58.0,29.57,SE,144,5.0,15.0,27,0.00,,SKC,0.00,615.00,VWS V14.00,2013-07-29 22:18:00,
2013-07-29 17:20:00,97.8,59.2,29.57,SSE,150,9.0,17.0,28,0.00,,SKC,0.00,598.00,VWS V14.01,2013-07-29 22:20:00,
2013-07-29 17:23:00,97.9,58.3,29.58,South,175,12.0,17.0,27,0.00,,SKC,0.00,598.00,VWS V14.00,2013-07-29 22:23:00,
2013-07-29 17:28:00,97.5,59.0,29.57,SSE,157,5.0,19.0,28,0.00,,SKC,0.00,580.00,VWS V14.00,2013-07-29 22:28:00,
2013-07-29 17:30:00,97.4,58.9,29.57,SSE,167,8.0,19.0,28,0.00,,SKC,0.00,573.00,VWS V14.01,2013-07-29 22:30:00,
2013-07-29 17:33:00,97.4,58.9,29.57,SSE,157,6.0,10.0,28,0.00,,SKC,0.00,564.00,VWS V14.00,2013-07-29 22:33:00,
2013-07-29 17:38:00,97.4,58.9,29.57,SSE,155,8.0,16.0,28,0.00,,SKC,0.00,555.00,VWS V14.00,2013-07-29 22:38:00,
2013-07-29 17:40:00,97.2,58.7,29.57,SE,134,0.0,16.0,28,0.00,,SKC,0.00,543.00,VWS V14.01,2013-07-29 22:40:00,
2013-07-29 17:43:00,97.3,58.8,29.58,SSE,152,7.0,18.0,28,0.00,,SKC,0.00,536.00,VWS V14.00,2013-07-29 22:43:00,
2013-07-29 17:49:00,97.4,58.9,29.57,SE,129,7.0,18.0,28,0.00,,SKC,0.00,512.00,VWS V14.00,2013-07-29 22:49:00,
2013-07-29 17:50:00,97.4,58.9,29.57,ESE,121,11.0,18.0,28,0.00,,SKC,0.00,508.00,VWS V14.01,2013-07-29 22:50:00,
2013-07-29 17:54:00,97.3,58.8,29.57,ESE,121,11.0,15.0,28,0.00,,SKC,0.00,501.00,VWS V14.00,2013-07-29 22:54:00,
2013-07-29 17:59:00,97.0,58.5,29.57,SE,144,6.0,19.0,28,0.00,,SKC,0.00,489.00,VWS V14.00,2013-07-29 22:59:00,
2013-07-29 18:00:00,97.1,58.6,29.57,SE,132,11.0,19.0,28,0.00,,SKC,0.00,478.00,VWS V14.01,2013-07-29 23:00:00,
2013-07-29 18:04:00,97.1,58.6,29.57,SSE,161,6.0,17.0,28,0.00,,SKC,0.00,466.00,VWS V14.00,2013-07-29 23:04:00,
2013-07-29 18:09:00,96.8,58.3,29.57,SE,132,5.0,17.0,28,0.00,,SKC,0.00,448.00,VWS V14.00,2013-07-29 23:09:00,
2013-07-29 18:10:00,96.8,59.3,29.57,SE,145,11.0,17.0,29,0.00,,SKC,0.00,441.00,VWS V14.01,2013-07-29 23:10:00,
2013-07-29 18:14:00,96.8,58.3,29.57,SE,126,13.0,13.0,28,0.00,,SKC,0.00,436.00,VWS V14.00,2013-07-29 23:14:00,
2013-07-29 18:19:00,96.6,58.2,29.56,ESE,113,8.0,23.0,28,0.00,,SKC,0.00,415.00,VWS V14.00,2013-07-29 23:19:00,
2013-07-29 18:20:00,96.4,59.0,29.56,SE,135,9.0,23.0,29,0.00,,SKC,0.00,408.00,VWS V14.01,2013-07-29 23:20:00,
2013-07-29 18:24:00,96.2,58.8,29.56,SSE,152,14.0,17.0,29,0.00,,SKC,0.00,399.00,VWS V14.00,2013-07-29 23:24:00,
2013-07-29 18:29:00,96.0,58.7,29.57,SE,140,9.0,18.0,29,0.00,,SKC,0.00,383.00,VWS V14.00,2013-07-29 23:29:00,
2013-07-29 18:30:00,96.0,59.6,29.57,SSE,150,6.0,18.0,30,0.00,,SKC,0.00,374.00,VWS V14.01,2013-07-29 23:30:00,
2013-07-29 18:34:00,96.0,59.6,29.56,SSW,201,5.0,10.0,30,0.00,,SKC,0.00,367.00,VWS V14.00,2013-07-29 23:34:00,
2013-07-29 18:39:00,96.1,59.7,29.56,SSE,153,8.0,11.0,30,0.00,,SKC,0.00,345.00,VWS V14.00,2013-07-29 23:39:00,
2013-07-29 18:40:00,96.2,59.8,29.57,SE,134,9.0,13.0,30,0.00,,SKC,0.00,338.00,VWS V14.01,2013-07-29 23:40:00,
2013-07-29 18:44:00,96.1,59.7,29.56,SE,144,10.0,20.0,30,0.00,,SKC,0.00,329.00,VWS V14.00,2013-07-29 23:44:00,
2013-07-29 18:49:00,95.9,60.4,29.57,SSE,155,5.0,20.0,31,0.00,,SKC,0.00,311.00,VWS V14.00,2013-07-29 23:49:00,
2013-07-29 18:50:00,95.8,60.3,29.56,South,185,4.0,20.0,31,0.00,,SKC,0.00,297.00,VWS V14.01,2013-07-29 23:50:00,
2013-07-29 18:54:00,95.8,60.3,29.56,SE,130,13.0,14.0,31,0.00,,SKC,0.00,288.00,VWS V14.00,2013-07-29 23:54:00,
2013-07-29 18:59:00,95.6,60.2,29.56,SE,139,7.0,18.0,31,0.00,,SKC,0.00,271.00,VWS V14.00,2013-07-29 23:59:00,
2013-07-29 19:00:00,95.4,60.9,29.57,SE,144,6.0,19.0,32,0.00,,SKC,0.00,262.00,VWS V14.01,2013-07-30 00:00:00,
2013-07-29 19:04:00,95.2,59.8,29.57,SE,131,8.0,14.0,31,0.00,,SKC,0.00,253.00,VWS V14.00,2013-07-30 00:04:00,
2013-07-29 19:09:00,95.1,60.6,29.56,SE,134,9.0,14.0,32,0.00,,SKC,0.00,232.00,VWS V14.00,2013-07-30 00:09:00,
2013-07-29 19:10:00,95.0,60.5,29.56,SE,128,9.0,14.0,32,0.00,,SKC,0.00,227.00,VWS V14.01,2013-07-30 00:10:00,
2013-07-29 19:14:00,94.8,61.2,29.56,ESE,118,9.0,14.0,33,0.00,,SKC,0.00,214.00,VWS V14.00,2013-07-30 00:14:00,
2013-07-29 19:19:00,94.6,61.1,29.57,SE,138,10.0,19.0,33,0.00,,SKC,0.00,195.00,VWS V14.00,2013-07-30 00:19:00,
2013-07-29 19:20:00,94.5,61.0,29.57,SSE,152,5.0,19.0,33,0.00,,SKC,0.00,188.00,VWS V14.01,2013-07-30 00:20:00,
2013-07-29 19:24:00,94.4,60.9,29.57,SE,140,9.0,11.0,33,0.00,,SKC,0.00,178.00,VWS V14.00,2013-07-30 00:24:00,
2013-07-29 19:29:00,94.1,60.6,29.57,SE,138,8.0,15.0,33,0.00,,SKC,0.00,153.00,VWS V14.00,2013-07-30 00:29:00,
2013-07-29 19:30:00,94.0,60.5,29.57,SSE,148,11.0,17.0,33,0.00,,SKC,0.00,146.00,VWS V14.01,2013-07-30 00:30:00,
2013-07-29 19:35:00,93.7,60.3,29.57,SE,140,9.0,15.0,33,0.00,,SKC,0.00,135.00,VWS V14.00,2013-07-30 00:35:00,
2013-07-29 19:40:00,93.5,61.0,29.57,SE,139,8.0,15.0,34,0.00,,SKC,0.00,114.00,VWS V14.00,2013-07-30 00:40:00,
2013-07-29 19:45:00,93.4,60.0,29.57,SE,130,7.0,13.0,33,0.00,,SKC,0.00,95.00,VWS V14.00,2013-07-30 00:45:00,
2013-07-29 19:50:00,93.2,59.8,29.57,SE,138,8.0,14.0,33,0.00,,SKC,0.00,81.00,VWS V14.00,2013-07-30 00:50:00,
2013-07-29 19:55:00,92.9,60.4,29.58,South,173,7.0,12.0,34,0.00,,SKC,0.00,62.00,VWS V14.00,2013-07-30 00:55:00,
2013-07-29 20:00:00,92.7,60.2,29.58,ESE,118,5.0,12.0,34,0.00,,SKC,0.00,40.00,VWS V14.00,2013-07-30 01:00:00,
2013-07-29 20:05:00,92.5,60.1,29.58,SSE,153,6.0,16.0,34,0.00,,SKC,0.00,32.00,VWS V14.00,2013-07-30 01:05:00,
2013-07-29 20:10:00,92.1,60.5,29.59,SSE,159,4.0,16.0,35,0.00,,SKC,0.00,19.00,VWS V14.00,2013-07-30 01:10:00,
2013-07-29 20:15:00,91.9,60.4,29.59,ESE,105,11.0,11.0,35,0.00,,SKC,0.00,11.00,VWS V14.00,2013-07-30 01:15:00,
2013-07-29 20:20:00,91.6,60.9,29.58,SSE,165,10.0,15.0,36,0.00,,SKC,0.00,7.00,VWS V14.00,2013-07-30 01:20:00,
2013-07-29 20:25:00,91.3,60.6,29.60,SE,126,2.0,11.0,36,0.00,,SKC,0.00,0.00,VWS V14.00,2013-07-30 01:25:00,
2013-07-29 20:30:00,91.0,61.1,29.60,SE,135,5.0,11.0,37,0.00,,SKC,0.00,0.00,VWS V14.00,2013-07-30 01:30:00,
2013-07-29 20:35:00,90.8,61.0,29.60,SE,146,4.0,10.0,37,0.00,,SKC,0.00,0.00,VWS V14.00,2013-07-30 01:35:00,
2013-07-29 20:40:00,90.6,60.8,29.60,SE,146,4.0,10.0,37,0.00,,SKC,0.00,0.00,VWS V14.00,2013-07-30 01:40:00,
2013-07-29 20:45:00,90.3,60.5,29.60,SE,146,2.0,7.0,37,0.00,,SKC,0.00,0.00,VWS V14.00,2013-07-30 01:45:00,
2013-07-29 20:50:00,90.0,61.0,29.60,SE,143,5.0,8.0,38,0.00,,SKC,0.00,0.00,VWS V14.00,2013-07-30 01:50:00,
2013-07-29 20:56:00,89.7,60.7,29.60,SE,142,6.0,7.0,38,0.00,,SKC,0.00,0.00,VWS V14.00,2013-07-30 01:56:00,
2013-07-29 21:00:00,89.4,61.2,29.60,SE,140,4.0,8.0,39,0.00,,SKC,0.00,0.00,VWS V14.01,2013-07-30 02:00:00,
2013-07-29 21:01:00,89.5,61.3,29.60,SE,140,6.0,8.0,39,0.00,,SKC,0.00,0.00,VWS V14.00,2013-07-30 02:01:00,
2013-07-29 21:06:00,89.2,61.0,29.60,SE,140,2.0,8.0,39,0.00,,SKC,0.00,0.00,VWS V14.00,2013-07-30 02:06:00,
2013-07-29 21:10:00,88.9,61.5,29.60,SE,136,2.0,8.0,40,0.00,,SKC,0.00,0.00,VWS V14.01,2013-07-30 02:10:00,
2013-07-29 21:11:00,89.0,61.6,29.60,SE,137,2.0,8.0,40,0.00,,SKC,0.00,0.00,VWS V14.00,2013-07-30 02:11:00,
2013-07-29 21:16:00,88.8,62.1,29.60,SE,138,5.0,10.0,41,0.00,,SKC,0.00,0.00,VWS V14.00,2013-07-30 02:16:00,
2013-07-29 21:20:00,88.6,61.9,29.62,SE,130,4.0,11.0,41,0.00,,SKC,0.00,0.00,VWS V14.01,2013-07-30 02:20:00,
2013-07-29 21:21:00,88.6,61.9,29.62,SE,130,7.0,11.0,41,0.00,,SKC,0.00,0.00,VWS V14.00,2013-07-30 02:21:00,
2013-07-29 21:26:00,88.5,63.2,29.62,ESE,121,4.0,11.0,43,0.00,,SKC,0.00,0.00,VWS V14.00,2013-07-30 02:26:00,
2013-07-29 21:30:00,88.3,63.7,29.62,ESE,123,2.0,11.0,44,0.00,,SKC,0.00,0.00,VWS V14.01,2013-07-30 02:30:00,
2013-07-29 21:31:00,88.3,63.7,29.62,ESE,123,2.0,11.0,44,0.00,,SKC,0.00,0.00,VWS V14.00,2013-07-30 02:31:00,
2013-07-29 21:36:00,88.1,64.1,29.62,ESE,123,4.0,5.0,45,0.00,,SKC,0.00,0.00,VWS V14.00,2013-07-30 02:36:00,
2013-07-29 21:40:00,87.9,65.2,29.63,SE,128,4.0,13.0,47,0.00,,SKC,0.00,0.00,VWS V14.01,2013-07-30 02:40:00,
2013-07-29 21:41:00,87.9,65.2,29.63,SE,128,4.0,13.0,47,0.00,,SKC,0.00,0.00,VWS V14.00,2013-07-30 02:41:00,
2013-07-29 21:46:00,87.6,66.1,29.63,ESE,118,14.0,15.0,49,0.00,,SKC,0.00,0.00,VWS V14.00,2013-07-30 02:46:00,
2013-07-29 21:50:00,87.3,67.0,29.63,SSE,149,9.0,19.0,51,0.00,,SKC,0.00,0.00,VWS V14.01,2013-07-30 02:50:00,
2013-07-29 21:51:00,87.3,67.0,29.63,SSE,152,10.0,19.0,51,0.00,,SKC,0.00,0.00,VWS V14.00,2013-07-30 02:51:00,
2013-07-29 21:56:00,87.0,67.3,29.63,ESE,116,6.0,12.0,52,0.00,,SKC,0.00,0.00,VWS V14.00,2013-07-30 02:56:00,
2013-07-29 22:00:00,86.7,67.5,29.62,SE,132,8.0,15.0,53,0.00,,SKC,0.00,0.00,VWS V14.01,2013-07-30 03:00:00,
2013-07-29 22:01:00,86.7,67.5,29.62,SE,124,7.0,15.0,53,0.00,,SKC,0.00,0.00,VWS V14.00,2013-07-30 03:01:00,
2013-07-29 22:06:00,86.4,67.3,29.62,ESE,117,9.0,13.0,53,0.00,,SKC,0.00,0.00,VWS V14.00,2013-07-30 03:06:00,
2013-07-29 22:10:00,86.1,67.5,29.62,SSE,165,9.0,20.0,54,0.00,,SKC,0.00,0.00,VWS V14.01,2013-07-30 03:10:00,
2013-07-29 22:11:00,86.1,67.5,29.62,SSE,165,9.0,20.0,54,0.00,,SKC,0.00,0.00,VWS V14.00,2013-07-30 03:11:00,
2013-07-29 22:17:00,85.8,67.8,29.62,SE,142,5.0,18.0,55,0.00,,SKC,0.00,0.00,VWS V14.00,2013-07-30 03:17:00,
2013-07-29 22:20:00,85.5,68.0,29.62,SE,125,7.0,18.0,56,0.00,,SKC,0.00,0.00,VWS V14.01,2013-07-30 03:20:00,
2013-07-29 22:22:00,85.5,68.0,29.62,SE,126,5.0,8.0,56,0.00,,SKC,0.00,0.00,VWS V14.00,2013-07-30 03:22:00,
2013-07-29 22:27:00,85.2,67.8,29.61,SE,137,14.0,14.0,56,0.00,,SKC,0.00,0.00,VWS V14.00,2013-07-30 03:27:00,
2013-07-29 22:30:00,85.1,68.2,29.61,ESE,118,8.0,17.0,57,0.00,,SKC,0.00,0.00,VWS V14.01,2013-07-30 03:30:00,
2013-07-29 22:32:00,85.1,68.2,29.62,ESE,118,8.0,8.0,57,0.00,,SKC,0.00,0.00,VWS V14.00,2013-07-30 03:32:00,
2013-07-29 22:37:00,84.9,68.0,29.61,SE,134,9.0,13.0,57,0.00,,SKC,0.00,0.00,VWS V14.00,2013-07-30 03:37:00,
2013-07-29 22:40:00,84.7,68.3,29.61,SSE,153,8.0,17.0,58,0.00,,SKC,0.00,0.00,VWS V14.01,2013-07-30 03:40:00,
2013-07-29 22:42:00,84.7,68.3,29.61,SE,140,6.0,12.0,58,0.00,,SKC,0.00,0.00,VWS V14.00,2013-07-30 03:42:00,
2013-07-29 22:47:00,84.5,68.6,29.61,ESE,112,7.0,20.0,59,0.00,,SKC,0.00,0.00,VWS V14.00,2013-07-30 03:47:00,
2013-07-29 22:50:00,84.3,68.4,29.61,SSE,166,6.0,20.0,59,0.00,,SKC,0.00,0.00,VWS V14.01,2013-07-30 03:50:00,
2013-07-29 22:52:00,84.3,68.4,29.61,ESE,109,14.0,14.0,59,0.00,,SKC,0.00,0.00,VWS V14.00,2013-07-30 03:52:00,
2013-07-29 22:58:00,84.0,68.6,29.62,SE,140,8.0,17.0,60,0.00,,SKC,0.00,0.00,VWS V14.00,2013-07-30 03:58:00,
2013-07-29 23:00:00,83.9,69.0,29.62,SE,140,14.0,17.0,61,0.00,,SKC,0.00,0.00,VWS V14.01,2013-07-30 04:00:00,
2013-07-29 23:01:00,83.9,69.0,29.62,SE,127,13.0,17.0,61,0.00,,SKC,0.00,0.00,VWS V14.00,2013-07-30 04:01:00,
2013-07-29 23:06:00,83.8,69.4,29.61,SE,129,8.0,13.0,62,0.00,,SKC,0.00,0.00,VWS V14.00,2013-07-30 04:06:00,
2013-07-29 23:10:00,83.6,69.7,29.62,SE,137,6.0,16.0,63,0.00,,SKC,0.00,0.00,VWS V14.01,2013-07-30 04:10:00,
2013-07-29 23:11:00,83.6,69.7,29.62,SE,131,11.0,16.0,63,0.00,,SKC,0.00,0.00,VWS V14.00,2013-07-30 04:11:00,
2013-07-29 23:16:00,83.5,69.6,29.62,SE,127,6.0,13.0,63,0.00,,SKC,0.00,0.00,VWS V14.00,2013-07-30 04:16:00,
2013-07-29 23:20:00,83.3,69.9,29.62,ESE,119,5.0,14.0,64,0.00,,SKC,0.00,0.00,VWS V14.01,2013-07-30 04:20:00,
2013-07-29 23:21:00,83.3,69.9,29.62,ESE,119,5.0,14.0,64,0.00,,SKC,0.00,0.00,VWS V14.00,2013-07-30 04:21:00,
2013-07-29 23:26:00,83.2,69.8,29.63,SE,124,5.0,13.0,64,0.00,,SKC,0.00,0.00,VWS V14.00,2013-07-30 04:26:00,
2013-07-29 23:30:00,83.0,70.0,29.63,SE,134,4.0,13.0,65,0.00,,SKC,0.00,0.00,VWS V14.01,2013-07-30 04:30:00,
2013-07-29 23:31:00,83.0,70.0,29.63,SE,133,4.0,13.0,65,0.00,,SKC,0.00,0.00,VWS V14.00,2013-07-30 04:31:00,
2013-07-29 23:36:00,82.9,70.4,29.63,SSE,147,6.0,18.0,66,0.00,,SKC,0.00,0.00,VWS V14.00,2013-07-30 04:36:00,
2013-07-29 23:40:00,82.7,70.6,29.64,SSE,152,14.0,18.0,67,0.00,,SKC,0.00,0.00,VWS V14.01,2013-07-30 04:40:00,
2013-07-29 23:41:00,82.7,70.6,29.64,ESE,119,18.0,18.0,67,0.00,,SKC,0.00,0.00,VWS V14.00,2013-07-30 04:41:00,
2013-07-29 23:47:00,82.6,71.0,29.63,SSE,157,5.0,17.0,68,0.00,,SKC,0.00,0.00,VWS V14.00,2013-07-30 04:47:00,
2013-07-29 23:50:00,82.5,70.9,29.63,SE,134,8.0,17.0,68,0.00,,SKC,0.00,0.00,VWS V14.01,2013-07-30 04:50:00,
2013-07-29 23:52:00,82.4,70.8,29.63,SE,134,6.0,6.0,68,0.00,,SKC,0.00,0.00,VWS V14.00,2013-07-30 04:52:00,
2013-07-29 23:57:00,82.2,70.6,29.63,SE,138,8.0,17.0,68,0.00,,SKC,0.00,0.00,VWS V14.00,2013-07-30 04:57:00,